TimeEDT,TemperatureF,Dew PointF,Humidity,Sea Level PressureIn,VisibilityMPH,Wind Direction,Wind SpeedMPH,Gust SpeedMPH,PrecipitationIn,Events,Conditions,WindDirDegrees,DateUTC
12:35 AM,50.9,49.6,95,30.17,10.0,Calm,Calm,-,N/A,,Clear,0,2013-05-10 04:35:00
1:15 AM,49.3,49.1,99,30.18,7.0,Calm,Calm,-,N/A,,Clear,0,2013-05-10 05:15:00
1:55 AM,49.6,49.5,99,30.17,10.0,Calm,Calm,-,N/A,,Clear,0,2013-05-10 05:55:00
2:15 AM,47.5,47.3,99,30.16,3.0,Calm,Calm,-,N/A,,Clear,0,2013-05-10 06:15:00
2:35 AM,47.3,47.3,100,30.16,7.0,Calm,Calm,-,N/A,,Clear,0,2013-05-10 06:35:00
2:55 AM,47.5,47.5,100,30.16,7.0,Calm,Calm,-,N/A,,Clear,0,2013-05-10 06:55:00
3:15 AM,48.2,48.2,100,30.15,10.0,Calm,Calm,-,N/A,,Clear,0,2013-05-10 07:15:00
3:35 AM,49.5,49.1,99,30.15,10.0,Calm,Calm,-,N/A,,Clear,0,2013-05-10 07:35:00
3:55 AM,50.0,49.1,97,30.15,10.0,Calm,Calm,-,N/A,,Clear,0,2013-05-10 07:55:00
4:15 AM,48.6,48.6,100,30.15,7.0,Calm,Calm,-,N/A,,Clear,0,2013-05-10 08:15:00
4:35 AM,49.1,48.7,99,30.14,10.0,Calm,Calm,-,N/A,,Clear,0,2013-05-10 08:35:00
4:55 AM,49.5,48.4,96,30.14,10.0,Calm,Calm,-,N/A,,Clear,0,2013-05-10 08:55:00
5:15 AM,49.1,48.4,97,30.14,10.0,Calm,Calm,-,N/A,,Clear,0,2013-05-10 09:15:00
5:35 AM,46.9,46.9,100,30.14,4.0,Calm,Calm,-,N/A,,Clear,0,2013-05-10 09:35:00
5:55 AM,47.5,47.5,100,30.14,10.0,Calm,Calm,-,N/A,,Clear,0,2013-05-10 09:55:00
6:15 AM,46.4,46.4,100,30.14,4.0,Calm,Calm,-,N/A,,Clear,0,2013-05-10 10:15:00
6:35 AM,46.9,46.9,100,30.14,7.0,Calm,Calm,-,N/A,,Clear,0,2013-05-10 10:35:00
6:55 AM,45.1,45.1,100,30.14,1.8,Calm,Calm,-,N/A,,Mist,0,2013-05-10 10:55:00
7:15 AM,46.8,46.8,100,30.14,4.0,Calm,Calm,-,N/A,,Clear,0,2013-05-10 11:15:00
7:35 AM,50.0,49.6,99,30.14,10.0,Calm,Calm,-,N/A,,Clear,0,2013-05-10 11:35:00
7:55 AM,51.8,49.8,93,30.14,10.0,Calm,Calm,-,N/A,,Clear,0,2013-05-10 11:55:00
8:15 AM,54.5,51.1,88,30.14,10.0,Calm,Calm,-,N/A,,Clear,0,2013-05-10 12:15:00
8:35 AM,56.8,52.0,84,30.12,10.0,Calm,Calm,-,N/A,,Clear,0,2013-05-10 12:35:00
8:55 AM,60.3,54.3,81,30.12,10.0,Calm,Calm,-,N/A,,Clear,0,2013-05-10 12:55:00
9:15 AM,63.1,55.8,77,30.13,10.0,Calm,Calm,-,N/A,,Clear,0,2013-05-10 13:15:00
9:35 AM,67.1,49.6,53,30.12,10.0,SSW,4.6,-,N/A,,Clear,200,2013-05-10 13:35:00
9:55 AM,67.5,48.4,50,30.13,10.0,SW,6.9,-,N/A,,Clear,220,2013-05-10 13:55:00
10:15 AM,69.3,48.2,47,30.12,10.0,SSW,5.8,-,N/A,,Clear,210,2013-05-10 14:15:00
10:35 AM,69.8,46.9,44,30.13,10.0,West,8.1,17.3,N/A,,Clear,260,2013-05-10 14:35:00
11:15 AM,70.9,47.7,44,30.13,10.0,WSW,5.8,16.1,N/A,,Clear,240,2013-05-10 15:15:00
11:35 AM,70.7,47.5,44,30.14,10.0,SSW,6.9,-,N/A,,Clear,210,2013-05-10 15:35:00
11:55 AM,72.3,49.8,45,30.13,10.0,SE,4.6,17.3,N/A,,Clear,130,2013-05-10 15:55:00
12:15 PM,72.9,49.8,44,30.12,10.0,South,10.4,20.7,N/A,,Clear,180,2013-05-10 16:15:00
12:35 PM,74.3,48.9,41,30.12,10.0,SW,13.8,19.6,N/A,,Clear,220,2013-05-10 16:35:00
12:55 PM,73.6,50.2,44,30.12,10.0,SSW,10.4,-,N/A,,Clear,210,2013-05-10 16:55:00
1:15 PM,73.4,49.3,42,30.11,10.0,South,5.8,19.6,N/A,,Clear,190,2013-05-10 17:15:00
1:35 PM,73.8,51.3,45,30.10,10.0,SSW,4.6,19.6,N/A,,Clear,210,2013-05-10 17:35:00
1:55 PM,73.0,51.6,47,30.10,10.0,South,5.8,19.6,N/A,,Clear,180,2013-05-10 17:55:00
2:15 PM,72.9,51.8,47,30.10,10.0,South,4.6,16.1,N/A,,Clear,170,2013-05-10 18:15:00
2:35 PM,72.5,51.4,47,30.08,10.0,South,8.1,20.7,N/A,,Clear,190,2013-05-10 18:35:00
2:55 PM,70.9,53.2,54,30.08,10.0,SSE,3.5,9.2,N/A,,Scattered Clouds,160,2013-05-10 18:55:00
3:15 PM,70.5,53.4,55,30.08,10.0,SSW,11.5,19.6,N/A,,Scattered Clouds,200,2013-05-10 19:15:00
3:35 PM,69.8,52.0,53,30.07,10.0,SSW,10.4,19.6,N/A,,Scattered Clouds,210,2013-05-10 19:35:00
3:55 PM,69.1,52.3,55,30.06,10.0,SSW,4.6,18.4,N/A,,Scattered Clouds,200,2013-05-10 19:55:00
4:15 PM,67.8,53.2,60,30.06,10.0,SSW,6.9,-,N/A,,Scattered Clouds,200,2013-05-10 20:15:00
4:35 PM,68.4,52.7,57,30.06,10.0,WNW,18.4,23.0,N/A,,Scattered Clouds,300,2013-05-10 20:35:00
4:55 PM,64.4,55.0,72,30.06,10.0,WNW,13.8,-,N/A,,Mostly Cloudy,290,2013-05-10 20:55:00
5:15 PM,63.3,55.2,75,30.06,10.0,West,6.9,-,N/A,Thunderstorm,Mostly Cloudy,280,2013-05-10 21:15:00
5:35 PM,63.7,54.5,72,30.06,10.0,WNW,5.8,-,N/A,,Mostly Cloudy,300,2013-05-10 21:35:00
5:55 PM,63.0,54.9,75,30.05,10.0,NW,6.9,-,N/A,,Mostly Cloudy,310,2013-05-10 21:55:00
6:15 PM,62.8,55.2,76,30.06,10.0,West,15.0,20.7,N/A,Thunderstorm,Thunderstorm,280,2013-05-10 22:15:00
6:35 PM,62.4,54.7,76,30.06,10.0,West,10.4,-,N/A,Thunderstorm,Mostly Cloudy,280,2013-05-10 22:35:00
6:55 PM,61.7,56.7,84,30.07,10.0,West,13.8,17.3,N/A,Rain-Thunderstorm,Light Thunderstorms and Rain,280,2013-05-10 22:55:00
7:15 PM,61.0,57.9,90,30.06,7.0,WNW,9.2,-,N/A,Rain-Thunderstorm,Rain,300,2013-05-10 23:15:00
7:35 PM,60.3,58.8,95,30.06,5.0,West,5.8,-,0.03,Rain,Rain,260,2013-05-10 23:35:00
7:55 PM,59.5,59.2,99,30.06,5.0,North,5.8,-,0.06,Rain,Light Rain,360,2013-05-10 23:55:00
8:15 PM,58.6,58.5,99,30.05,7.0,Calm,Calm,-,N/A,,Scattered Clouds,0,2013-05-11 00:15:00
8:35 PM,58.5,58.5,100,30.06,7.0,Calm,Calm,-,N/A,,Clear,0,2013-05-11 00:35:00
8:55 PM,58.1,58.1,100,30.06,2.0,Calm,Calm,-,N/A,,Clear,0,2013-05-11 00:55:00
9:15 PM,58.5,58.5,100,30.05,3.0,Calm,Calm,-,N/A,,Clear,0,2013-05-11 01:15:00
9:35 PM,58.1,58.1,100,30.05,2.5,Calm,Calm,-,N/A,,Clear,0,2013-05-11 01:35:00
9:55 PM,58.5,58.5,100,30.05,7.0,WNW,5.8,-,N/A,,Clear,290,2013-05-11 01:55:00
10:15 PM,58.3,58.3,100,30.05,4.0,South,3.5,-,N/A,,Clear,180,2013-05-11 02:15:00
10:35 PM,60.6,58.1,91,30.06,10.0,Calm,Calm,-,N/A,,Clear,0,2013-05-11 02:35:00
10:55 PM,60.4,57.9,91,30.05,10.0,Calm,Calm,-,N/A,,Clear,0,2013-05-11 02:55:00
11:15 PM,60.8,57.7,90,30.05,10.0,Calm,Calm,-,N/A,,Clear,0,2013-05-11 03:15:00
11:35 PM,59.0,58.1,97,30.05,10.0,SW,3.5,-,N/A,,Clear,230,2013-05-11 03:35:00
11:55 PM,59.0,57.6,95,30.05,10.0,Calm,Calm,-,N/A,,Clear,0,2013-05-11 03:55:00